Home   Weather   Kodiak   Past weeks

Flag for USA Past Weather in Kodiak, Alaska, USA — Yesterday and Last 2 Weeks

47 °F

More clouds than sun.

Feels Like: 41 °F
Forecast: 44 / 46 °F
Wind: 15 mph from East

Location: Kodiak Weather Reporting Station

Current Time: Oct 26, 2016 at 1:14:48 PM

Latest Report: Oct 26, 2016 at 11:53 AM

Visibility: 10 mi

Pressure: 29.56 "Hg

Humidity: 86%

Dew Point: 43 °F

Location of KodiakLocation

Past Weather in Kodiak — Graph


Kodiak Temperature Yesterday

Maximum temperature yesterday: 44 °F (at 1:53 PM)
Minimum temperature yesterday: 29 °F (at 8:53 AM)
Average temperature yesterday: 38 °F

High & Low Weather Summary for the Past Weeks

High55 °F (Oct 12, 3:53 PM)100% (Oct 11, 11:00 AM)30.07 "Hg (Oct 11, 11:00 AM)
Low23 °F (Oct 18, 1:53 AM)29% (Oct 22, 3:53 PM)28.95 "Hg (Oct 17, 12:53 AM)
Average43 °F77%29.47 "Hg
* Reported Oct 11 11:00 AM — Oct 26 11:53 AM, Kodiak, Weather by CustomWeather, © 2016

Note: Actual official high and low records may vary slightly from our data, if they occured in-between our weather recording intervals... More about our weather records


Kodiak Weather History for the Previous 24 Hours

Scroll right to see more
Time TempWeatherWind HumidityBarometerVisibility
11:53 AM
Wed, Oct 26
47 °FMore clouds than sun.15 mph86%29.56 "Hg10 mi
10:53 AM47 °FPartly sunny.15 mph83%29.58 "Hg10 mi
9:53 AM47 °FMore clouds than sun.15 mph80%29.60 "Hg10 mi
8:53 AM47 °FOvercast.21 mph86%29.61 "Hg10 mi
7:53 AM47 °FMostly cloudy.13 mph93%29.64 "Hg10 mi
6:53 AM40 °FOvercast.No wind97%29.66 "Hg10 mi
5:53 AM41 °FLight rain. Fog.No wind86%29.68 "Hg6 mi
4:53 AM39 °FOvercast.5 mph86%29.71 "Hg10 mi
3:53 AM39 °FMostly cloudy.3 mph86%29.74 "Hg10 mi
2:53 AM38 °FMostly cloudy.6 mph90%29.76 "Hg10 mi
1:53 AM38 °FPassing clouds.3 mph83%29.79 "Hg10 mi
12:53 AM36 °FClear.6 mph85%29.80 "Hg10 mi
11:53 PM
Tue, Oct 25
36 °FClear.5 mph85%29.82 "Hg10 mi
10:53 PM35 °FClear.3 mph88%29.82 "Hg10 mi
9:53 PM36 °FClear.5 mph82%29.83 "Hg10 mi
8:53 PM36 °FClear.6 mph85%29.84 "Hg10 mi
7:53 PM37 °FClear.3 mph86%29.85 "Hg10 mi
6:53 PM39 °FClear.5 mph79%29.86 "Hg10 mi
5:53 PM41 °FSunny.5 mph74%29.87 "Hg10 mi
4:53 PM42 °FOvercast.3 mph68%29.87 "Hg10 mi
3:53 PM44 °FOvercast.No wind58%29.87 "Hg10 mi
2:53 PM44 °FSunny.No wind51%29.88 "Hg10 mi
1:53 PM44 °FMore clouds than sun.No wind49%29.91 "Hg10 mi
Weather by CustomWeather, © 2016

See weather overviewHow to use our weather pages